TimeMST,TemperatureF,Dew PointF,Humidity,Sea Level PressureIn,VisibilityMPH,Wind Direction,Wind SpeedMPH,Gust SpeedMPH,PrecipitationIn,Events,Conditions,WindDirDegrees,DateUTC
12:15 AM,84.2,73.4,70,29.77,10.0,SW,5.8,-,N/A,,Clear,230,2013-07-15 07:15:00
12:35 AM,82.4,71.6,70,29.77,10.0,NNW,3.5,-,N/A,,Clear,340,2013-07-15 07:35:00
12:55 AM,84.2,69.8,62,29.77,10.0,Calm,Calm,-,N/A,,Partly Cloudy,0,2013-07-15 07:55:00
1:15 AM,82.4,73.4,74,29.77,10.0,WSW,4.6,-,N/A,,Mostly Cloudy,250,2013-07-15 08:15:00
1:35 AM,84.2,71.6,66,29.77,10.0,NNW,5.8,-,N/A,,Mostly Cloudy,330,2013-07-15 08:35:00
1:55 AM,84.2,71.6,66,29.77,10.0,NW,3.5,-,N/A,,Scattered Clouds,320,2013-07-15 08:55:00
2:15 AM,84.2,71.6,66,29.77,10.0,WNW,4.6,-,N/A,,Clear,300,2013-07-15 09:15:00
2:35 AM,84.2,71.6,66,29.76,10.0,NNW,4.6,-,N/A,,Clear,340,2013-07-15 09:35:00
2:55 AM,84.2,69.8,62,29.77,10.0,North,4.6,-,N/A,,Clear,360,2013-07-15 09:55:00
3:15 AM,84.2,68.0,58,29.77,10.0,North,3.5,-,N/A,,Clear,350,2013-07-15 10:15:00
3:35 AM,82.4,71.6,70,29.77,10.0,Calm,Calm,-,N/A,,Clear,0,2013-07-15 10:35:00
3:55 AM,84.2,71.6,66,29.77,10.0,Calm,Calm,-,N/A,,Mostly Cloudy,0,2013-07-15 10:55:00
4:15 AM,84.2,69.8,62,29.77,10.0,West,3.5,-,N/A,,Overcast,280,2013-07-15 11:15:00
4:35 AM,82.4,75.2,79,29.77,10.0,Calm,Calm,-,N/A,,Overcast,0,2013-07-15 11:35:00
4:55 AM,82.4,77.0,84,29.77,10.0,Calm,Calm,-,N/A,,Overcast,0,2013-07-15 11:55:00
5:15 AM,84.2,77.0,79,29.78,10.0,Calm,Calm,-,N/A,,Overcast,0,2013-07-15 12:15:00
5:35 AM,82.4,75.2,79,29.78,10.0,Calm,Calm,-,N/A,,Overcast,0,2013-07-15 12:35:00
5:55 AM,82.4,73.4,74,29.78,10.0,Calm,Calm,-,N/A,,Overcast,0,2013-07-15 12:55:00
6:15 AM,82.4,71.6,70,29.79,10.0,West,3.5,-,N/A,,Mostly Cloudy,270,2013-07-15 13:15:00
6:35 AM,82.4,69.8,66,29.79,10.0,West,4.6,-,N/A,,Clear,280,2013-07-15 13:35:00
6:55 AM,84.2,68.0,58,29.79,10.0,Calm,Calm,-,N/A,,Clear,0,2013-07-15 13:55:00
7:15 AM,87.8,66.2,49,29.80,10.0,Calm,Calm,-,N/A,,Clear,0,2013-07-15 14:15:00
7:35 AM,87.8,66.2,49,29.80,10.0,West,3.5,-,N/A,,Clear,260,2013-07-15 14:35:00
7:55 AM,89.6,68.0,49,29.80,10.0,SW,4.6,-,N/A,,Clear,220,2013-07-15 14:55:00
8:15 AM,89.6,66.2,46,29.81,10.0,SW,6.9,-,N/A,,Clear,230,2013-07-15 15:15:00
8:35 AM,91.4,68.0,46,29.81,10.0,South,5.8,-,N/A,,Clear,170,2013-07-15 15:35:00
8:55 AM,91.4,66.2,43,29.81,10.0,SSE,5.8,-,N/A,,Clear,160,2013-07-15 15:55:00
9:15 AM,91.4,66.2,43,29.81,10.0,South,4.6,-,N/A,,Clear,170,2013-07-15 16:15:00
9:35 AM,93.2,64.4,38,29.80,10.0,South,4.6,-,N/A,,Clear,190,2013-07-15 16:35:00
9:55 AM,93.2,66.2,41,29.80,10.0,South,4.6,-,N/A,,Clear,190,2013-07-15 16:55:00
10:15 AM,95.0,66.2,39,29.80,10.0,SSE,8.1,-,N/A,,Clear,150,2013-07-15 17:15:00
10:35 AM,95.0,64.4,36,29.80,10.0,South,6.9,-,N/A,,Clear,180,2013-07-15 17:35:00
10:55 AM,98.6,64.4,32,29.79,10.0,SSE,8.1,-,N/A,,Clear,160,2013-07-15 17:55:00
11:15 AM,98.6,64.4,32,29.79,10.0,South,11.5,-,N/A,,Clear,170,2013-07-15 18:15:00
11:35 AM,100.4,64.4,31,29.78,10.0,South,9.2,-,N/A,,Clear,180,2013-07-15 18:35:00
11:55 AM,100.4,64.4,31,29.78,10.0,South,11.5,16.1,N/A,,Clear,170,2013-07-15 18:55:00
12:15 PM,102.2,62.6,27,29.77,10.0,SSE,11.5,-,N/A,,Clear,150,2013-07-15 19:15:00
12:35 PM,102.2,62.6,27,29.76,10.0,SSE,12.7,-,N/A,,Clear,150,2013-07-15 19:35:00
12:55 PM,102.2,62.6,27,29.75,10.0,SSE,9.2,-,N/A,,Clear,150,2013-07-15 19:55:00
1:15 PM,104.0,60.8,24,29.74,10.0,South,11.5,-,N/A,,Clear,180,2013-07-15 20:15:00
1:35 PM,104.0,60.8,24,29.72,10.0,South,13.8,-,N/A,,Clear,180,2013-07-15 20:35:00
1:55 PM,104.0,59.0,23,29.72,10.0,South,10.4,18.4,N/A,,Clear,180,2013-07-15 20:55:00
2:15 PM,107.6,59.0,20,29.70,10.0,South,12.7,18.4,N/A,,Clear,180,2013-07-15 21:15:00
2:35 PM,107.6,59.0,20,29.70,10.0,SSE,13.8,17.3,N/A,,Clear,160,2013-07-15 21:35:00
2:55 PM,105.8,57.2,20,29.68,10.0,SSW,11.5,-,N/A,,Clear,210,2013-07-15 21:55:00
3:15 PM,105.8,57.2,20,29.67,10.0,SSW,12.7,-,N/A,,Partly Cloudy,200,2013-07-15 22:15:00
3:35 PM,107.6,57.2,19,29.66,10.0,South,8.1,-,N/A,,Partly Cloudy,180,2013-07-15 22:35:00
3:55 PM,107.6,57.2,19,29.66,10.0,WSW,13.8,20.7,N/A,,Partly Cloudy,250,2013-07-15 22:55:00
4:15 PM,105.8,55.4,19,29.66,10.0,South,4.6,-,N/A,,Clear,190,2013-07-15 23:15:00
4:35 PM,107.6,57.2,19,29.66,10.0,SW,8.1,-,N/A,,Scattered Clouds,220,2013-07-15 23:35:00
4:55 PM,107.6,55.4,18,29.66,10.0,WSW,11.5,19.6,N/A,,Partly Cloudy,250,2013-07-15 23:55:00
5:15 PM,107.6,55.4,18,29.65,10.0,West,9.2,-,N/A,,Partly Cloudy,260,2013-07-16 00:15:00
5:35 PM,105.8,57.2,20,29.65,10.0,North,15.0,-,N/A,,Scattered Clouds,360,2013-07-16 00:35:00
5:55 PM,105.8,57.2,20,29.64,10.0,North,17.3,-,N/A,,Scattered Clouds,10,2013-07-16 00:55:00
6:15 PM,104.0,57.2,21,29.65,10.0,North,15.0,-,N/A,,Clear,360,2013-07-16 01:15:00
6:35 PM,104.0,57.2,21,29.66,10.0,North,13.8,-,N/A,,Clear,360,2013-07-16 01:35:00
6:55 PM,100.4,59.0,25,29.67,10.0,Calm,Calm,-,N/A,,Clear,0,2013-07-16 01:55:00
7:15 PM,100.4,59.0,25,29.67,10.0,NE,6.9,-,N/A,,Clear,40,2013-07-16 02:15:00
7:35 PM,100.4,57.2,24,29.69,10.0,NNE,4.6,-,N/A,,Scattered Clouds,30,2013-07-16 02:35:00
7:55 PM,96.8,59.0,28,29.71,10.0,SSE,12.7,20.7,N/A,,Mostly Cloudy,150,2013-07-16 02:55:00
8:15 PM,95.0,59.0,30,29.72,10.0,Calm,Calm,-,N/A,,Mostly Cloudy,0,2013-07-16 03:15:00
8:35 PM,93.2,60.8,34,29.73,10.0,Calm,Calm,-,N/A,,Overcast,0,2013-07-16 03:35:00
8:55 PM,93.2,60.8,34,29.74,10.0,ESE,9.2,-,N/A,,Overcast,110,2013-07-16 03:55:00
9:15 PM,91.4,62.6,38,29.74,10.0,South,4.6,-,N/A,,Overcast,180,2013-07-16 04:15:00
9:35 PM,91.4,60.8,36,29.74,10.0,NNE,3.5,-,N/A,,Overcast,30,2013-07-16 04:35:00
9:55 PM,93.2,59.0,32,29.74,10.0,NNW,4.6,-,N/A,,Overcast,340,2013-07-16 04:55:00
10:15 PM,93.2,59.0,32,29.74,10.0,NE,4.6,-,N/A,,Overcast,40,2013-07-16 05:15:00
10:35 PM,89.6,66.2,46,29.74,10.0,SE,4.6,-,N/A,,Overcast,140,2013-07-16 05:35:00
10:55 PM,87.8,66.2,49,29.74,10.0,SSE,5.8,-,N/A,,Overcast,160,2013-07-16 05:55:00
11:15 PM,87.8,66.2,49,29.74,10.0,West,3.5,-,N/A,,Mostly Cloudy,270,2013-07-16 06:15:00
11:35 PM,87.8,66.2,49,29.75,10.0,Calm,Calm,-,N/A,,Mostly Cloudy,0,2013-07-16 06:35:00
11:55 PM,89.6,64.4,43,29.76,10.0,NE,4.6,-,N/A,,Mostly Cloudy,40,2013-07-16 06:55:00